Zurück zum Katalog

HUYGENS

AktivWissenschaftSSO
NORAD 55093·PAYLOAD·🇳🇴 Norway

Gestartet Jan 3, 2023 von Cape Canaveral Space Force Station

Loading…

Nächste Überflüge (nächste 24 Stunden)

TLE

AktuellSource: Space-Track

Epoche: Sep 14, 2026, 21:36 UTC

1 55093U 23001CN  26257.90013038  .00008880  00000-0  21378-3 0  9992
2 55093  97.3161 325.2574 0010660 115.9281 244.3066 15.41453917206181

Verfolge HUYGENS in Echtzeit mit AllMySat

Download on the App Store